This demonstration page uses our WeatherBlox Daily Observations layout. Learn more.

Left ArrowRight Arrow

44.31136, -96.79839

Hourly Observations for January 27, 2022

Temp ( °F °C ) Dew Point ( °F °C ) Humidity (%) Winds ( mph kmh ) Pressure ( in mb ) Visibility ( mi km ) Precip ( " mm )
12:22 am 00:22 Cloudy with Light Wintry Mix 32 0 28 -2 87 87 NNW 16 26 29.99 1015 7 11 0.00 0.00
12:56 am 00:56 Cloudy with Light Wintry Mix 31 -0.6 28 -2.2 89 89 NW 14 22 30.03 1017 6 10 0.00 0.00
1:56 am 01:56 Cloudy 30 -1.1 25 -3.9 82 82 NW 18 30 30.04 1017 10 16 0.00 0.00
2:21 am 02:21 Cloudy 28 -2 25 -4 86 86 NW 13 20 30.06 1018 10 16 0.00 0.00
2:56 am 02:56 Cloudy 29 -1.7 24 -4.4 82 82 NW 14 22 30.08 1019 10 16 0.00 0.00
3:56 am 03:56 Cloudy 29 -1.7 24 -4.4 82 82 NW 14 22 30.10 1019 10 16 0.00 0.00
4:56 am 04:56 Cloudy 28 -2.2 23 -5 81 81 WNW 12 19 30.12 1020 10 16 0.00 0.00
5:56 am 05:56 Cloudy 28 -2.2 23 -5 81 81 WNW 10 17 30.15 1021 10 16 0.00 0.00
6:56 am 06:56 Cloudy 28 -2.2 23 -5 81 81 NW 14 22 30.17 1022 10 16 0.00 0.00
7:56 am 07:56 Cloudy 27 -2.8 22 -5.6 81 81 WNW 10 17 30.21 1023 10 16 0.00 0.00
8:56 am 08:56 Cloudy 28 -2.2 23 -5 81 81 NW 13 20 30.24 1024 10 16 0.00 0.00
9:32 am 09:32 Windy with Snow Likely 28 -2 25 -4 86 86 NW 21 33 30.26 1025 9 14 0.00 0.00
9:56 am 09:56 Cloudy with Light Snow 26 -3.3 21 -6.1 81 81 NNE 12 19 30.30 1026 8 13 0.00 0.00
10:35 am 10:35 Cloudy 25 -4 19 -7 80 80 N 15 24 30.32 1027 9 14 0.00 0.00
10:56 am 10:56 Cloudy 23 -5 18 -7.8 81 81 N 17 28 30.34 1027 10 16 0.00 0.00
11:46 am 11:46 Cloudy with Light Snow 19 -7 12 -11 73 73 N 17 28 30.41 1030 9 14 0.00 0.00
11:56 am 11:56 Windy with Snow Likely 19 -7.2 13 -10.6 77 77 N 20 31 30.40 1029 8 13 0.00 0.00
12:56 pm 12:56 Windy with Snow Likely 16 -8.9 6 -14.4 65 65 N 22 35 30.41 1030 9 14 0.00 0.00
1:19 pm 13:19 Windy with Snow Likely 16 -9 3 -16 57 57 N 21 33 30.44 1031 9 14 0.00 0.00
1:56 pm 13:56 Cloudy 13 -10.6 0 -17.8 56 56 N 18 30 30.44 1031 10 16 0.00 0.00
2:56 pm 14:56 Cloudy 12 -11.1 1 -17.2 61 61 N 15 24 30.45 1031 10 16 0.00 0.00
3:56 pm 15:56 Sunny 11 -11.7 -2 -18.9 55 55 N 16 26 30.47 1032 10 16 0.00 0.00
4:56 pm 16:56 Sunny 8 -13.3 -4 -20 57 57 N 15 24 30.52 1033 10 16 0.00 0.00
5:56 pm 17:56 Clear 4 -15.6 -5 -20.6 66 66 NNW 10 17 30.55 1034 10 16 0.00 0.00
6:56 pm 18:56 Clear 1 -17.2 -6 -21.1 72 72 NNW 7 11 30.57 1035 10 16 0.00 0.00
7:56 pm 19:56 Clear -1 -18.3 -7 -21.7 75 75 NNW 7 11 30.58 1035 10 16 0.00 0.00
8:56 pm 20:56 Clear -2 -18.9 -7 -21.7 79 79 NNW 7 11 30.59 1036 10 16 0.00 0.00
9:56 pm 21:56 Clear -4 -20 -9 -22.8 79 79 NNW 7 11 30.60 1036 10 16 0.00 0.00
10:56 pm 22:56 Clear -6 -21.1 -10 -23.3 83 83 NNW 7 11 30.60 1036 10 16 0.00 0.00
11:56 pm 23:56 Clear -7 -21.7 -11 -23.9 82 82 NNW 5 7 30.61 1037 10 16 0.00 0.00

Powered by AerisWeather